North Myrtle Beach, SC

8:02 PM EST on December 09, 2019 (GMT -0500)
Grand Strand

Weather History for KCRE - November, 2019

Change the Weather History Date:

Monday, November 18, 2019

  Actual Average Record
Temperature  
Mean Temperature 51 °F 56 °F  
Max Temperature 53 °F 66 °F 82 °F (2013)
Min Temperature 48 °F 46 °F 24 °F (1943)
Degree Days  
Heating Degree Days 14 10  
Month to date heating degree days 201 136  
Since 1 July heating degree days 213 226  
Cooling Degree Days 0 0  
Month to date cooling degree days 1 12  
Year to date cooling degree days 2380 1895  
Moisture  
Dew Point 45 °F    
Average Humidity 85    
Maximum Humidity 93    
Minimum Humidity 77    
Precipitation  
Precipitation T in 0.11 in 0.89 in (2012)
Month to date precipitation 3.74 1.81  
Year to date precipitation 50.45 47.32  
Sea Level Pressure  
Sea Level Pressure 29.83 in    
Wind  
Wind Speed 4 mph (NNW)    
Max Wind Speed 13 mph    
Max Gust Speed 16 mph    
Visibility 10 miles    
Events Rain    
T = Trace of Precipitation, MM = Missing Value Source: NWS Daily Summary

Daily Weather History Graph

Daily Weather History Graph

Search for Another Location

Airport or City:

Astronomy

Nov. 18, 2019 Rise Set
Actual Time 6:49 AM EST 5:10 PM EST
Civil Twilight 6:22 AM EST 5:36 PM EST
Nautical Twilight 5:52 AM EST 6:07 PM EST
Astronomical Twilight 5:22 AM EST 6:36 PM EST
Moon 10:53 PM EST (11/18) 12:17 PM EST (11/18)
Length of Visible Light 11h 13m
Length of Day
10h 20m
Waning Gibbous, 63% of the Moon is Illuminated
Nov 18
Waning Gibbous
Nov 19
Last Quarter
Nov 26
New
Dec 4
First Quarter
Dec 12
Full

Hourly Weather History & Observations

Time (EST) Temp. Dew Point Humidity Pressure Visibility Wind Dir Wind Speed Gust Speed Precip Events Conditions
12:11 AM 50.0 °F 44.1 °F 80% 29.85 in 10.0 mi North 6.9 mph - N/A   Overcast
1:53 AM 50.0 °F 45.0 °F 83% 29.83 in 10.0 mi North 6.9 mph - N/A   Overcast
2:53 AM 48.9 °F 45.0 °F 86% 29.83 in 10.0 mi North 6.9 mph - N/A   Overcast
3:53 AM 48.9 °F 45.0 °F 86% 29.82 in 10.0 mi NNE 6.9 mph - N/A   Overcast
4:53 AM 48.9 °F 45.0 °F 86% 29.83 in 10.0 mi NNE 3.5 mph - N/A   Overcast
5:53 AM 48.0 °F 45.0 °F 89% 29.83 in 10.0 mi North 4.6 mph - N/A   Overcast
6:03 AM 48.0 °F 44.1 °F 86% 29.83 in 10.0 mi NNE 5.8 mph - N/A   Overcast
6:42 AM 48.0 °F 44.1 °F 86% 29.84 in 10.0 mi NNE 5.8 mph - N/A   Overcast
6:53 AM 48.0 °F 44.1 °F 86% 29.85 in 10.0 mi NNE 4.6 mph - N/A   Overcast
7:53 AM 48.0 °F 44.1 °F 86% 29.86 in 10.0 mi Calm Calm - N/A   Overcast
8:07 AM 48.0 °F 44.1 °F 86% 29.86 in 10.0 mi Variable 3.5 mph - N/A   Overcast
8:40 AM 48.9 °F 44.1 °F 83% 29.86 in 10.0 mi North 4.6 mph - N/A   Overcast
8:53 AM 48.9 °F 44.1 °F 83% 29.86 in 10.0 mi Calm Calm - N/A   Overcast
9:53 AM 48.9 °F 44.1 °F 83% 29.87 in 10.0 mi Calm Calm - N/A   Overcast
10:43 AM 50.0 °F 46.0 °F 86% 29.85 in 10.0 mi West 3.5 mph - 0.00 in Rain Light Rain
10:53 AM 51.1 °F 46.9 °F 86% 29.85 in 10.0 mi Calm Calm - 0.00 in Rain Light Rain
11:53 AM 51.1 °F 46.0 °F 83% 29.82 in 10.0 mi NW 5.8 mph - 0.00 in   Overcast
12:33 PM 52.0 °F 46.9 °F 83% 29.80 in 10.0 mi NW 6.9 mph - N/A   Overcast
1:09 PM 53.1 °F 46.9 °F 80% 29.78 in 10.0 mi Variable 4.6 mph - N/A   Overcast
1:53 PM 52.0 °F 48.0 °F 86% 29.77 in 10.0 mi North 5.8 mph - 0.00 in Rain Light Rain
2:53 PM 51.1 °F 48.0 °F 89% 29.77 in 10.0 mi NNW 4.6 mph - 0.00 in   Overcast
3:53 PM 51.1 °F 46.9 °F 86% 29.77 in 10.0 mi Calm Calm - N/A   Overcast
4:53 PM 51.1 °F 46.9 °F 86% 29.78 in 10.0 mi Calm Calm - N/A   Overcast
5:53 PM 50.0 °F 46.9 °F 89% 29.80 in 10.0 mi West 3.5 mph - N/A   Overcast
6:53 PM 48.9 °F 46.0 °F 90% 29.82 in 10.0 mi West 6.9 mph - N/A   Overcast
7:53 PM 48.0 °F 45.0 °F 89% 29.83 in 10.0 mi WNW 6.9 mph - N/A   Overcast
8:53 PM 48.0 °F 45.0 °F 89% 29.83 in 10.0 mi Variable 4.6 mph - N/A   Overcast
10:53 PM 48.9 °F 45.0 °F 86% 29.82 in 10.0 mi NNW 3.5 mph - N/A   Overcast
11:53 PM 48.9 °F 45.0 °F 86% 29.83 in 10.0 mi Calm Calm - N/A   Overcast